Tulsa, OK

3:40 PM CDT on April 26, 2017 (GMT -0500)
Tulsa International

Weather History for KTUL - January, 2012

Change the Weather History Date:

Friday, January 27, 2012

  Actual Average Record
Temperature  
Mean Temperature 47 °F 38 °F  
Max Temperature 64 °F 49 °F 74 °F (1914)
Min Temperature 30 °F 28 °F 1 °F (1963)
Degree Days  
Heating Degree Days 18 27  
Month to date heating degree days 579 744  
Since 1 July heating degree days 1849 2172  
Moisture  
Dew Point 29 °F    
Average Humidity 54    
Maximum Humidity 78    
Minimum Humidity 30    
Precipitation  
Precipitation 0.00 in 0.06 in 1.01 in (1916)
Month to date precipitation 0.61 1.43  
Year to date precipitation 0.61 1.43  
Sea Level Pressure  
Sea Level Pressure 29.96 in    
Wind  
Wind Speed 11 mph (South)    
Max Wind Speed 32 mph    
Max Gust Speed 38 mph    
Visibility 10 miles    
Events      
T = Trace of Precipitation, MM = Missing Value Source: NWS Daily Summary

Daily Weather History Graph

Daily Weather History Graph

Search for Another Location

Airport or City:

Trip Planner

Search our weather history database for the weather conditions in past years. The results will help you decide how hot, cold, wet, or windy it might be!

Date:

Astronomy

Jan. 27, 2012 Rise Set
Actual Time 7:28 AM CST 5:44 PM CST
Civil Twilight 7:01 AM CST 6:11 PM CST
Nautical Twilight 6:30 AM CST 6:42 PM CST
Astronomical Twilight 5:59 AM CST 7:13 PM CST
Moon 9:33 AM CST (1/27) 10:25 PM CST (1/27)
Length of Visible Light 11h 10m
Length of Day
10h 15m
Waxing Crescent, 20% of the Moon is Illuminated
Jan 27
Waxing Crescent
Jan 30
First Quarter
Feb 7
Full
Feb 14
Last Quarter
Feb 21
New

Hourly Weather History & Observations

Time (CST) Temp. Windchill Dew Point Humidity Pressure Visibility Wind Dir Wind Speed Gust Speed Precip Events Conditions
12:53 AM 39.0 °F - 21.0 °F 49% 29.96 in 10.0 mi Calm Calm - N/A   Clear
1:53 AM 36.0 °F - 23.0 °F 59% 29.96 in 10.0 mi Calm Calm - N/A   Clear
2:53 AM 30.0 °F - 24.1 °F 79% 29.98 in 10.0 mi Calm Calm - N/A   Clear
3:53 AM 37.0 °F 33.3 °F 24.1 °F 59% 29.97 in 10.0 mi South 4.6 mph - N/A   Clear
4:53 AM 36.0 °F 33.3 °F 26.1 °F 67% 29.95 in 10.0 mi South 3.5 mph - N/A   Clear
5:53 AM 34.0 °F 29.8 °F 27.0 °F 75% 29.96 in 10.0 mi SSE 4.6 mph - N/A   Clear
6:53 AM 34.0 °F 28.8 °F 27.0 °F 75% 29.96 in 10.0 mi East 5.8 mph - N/A   Clear
7:53 AM 37.0 °F 31.0 °F 27.0 °F 67% 29.95 in 10.0 mi SE 8.1 mph - N/A   Clear
8:53 AM 42.1 °F 37.7 °F 33.1 °F 70% 29.94 in 10.0 mi ESE 6.9 mph - N/A   Partly Cloudy
9:53 AM 48.0 °F - 36.0 °F 63% 29.93 in 10.0 mi SSE 8.1 mph - N/A   Partly Cloudy
10:53 AM 50.0 °F - 35.1 °F 57% 29.93 in 10.0 mi SSE 9.2 mph - N/A   Clear
11:53 AM 55.0 °F - 36.0 °F 49% 29.87 in 10.0 mi SSE 15.0 mph 26.5 mph N/A   Partly Cloudy
12:53 PM 57.9 °F - 30.9 °F 36% 29.83 in 10.0 mi South 24.2 mph 29.9 mph N/A   Partly Cloudy
1:53 PM 60.1 °F - 33.1 °F 36% 29.80 in 10.0 mi South 18.4 mph 28.8 mph N/A   Partly Cloudy
2:53 PM 62.1 °F - 30.9 °F 31% 29.81 in 10.0 mi SSE 18.4 mph - N/A   Partly Cloudy
3:53 PM 63.0 °F - 30.0 °F 29% 29.82 in 10.0 mi SSW 12.7 mph 21.9 mph N/A   Partly Cloudy
4:53 PM 62.1 °F - 32.0 °F 32% 29.84 in 10.0 mi South 9.2 mph - N/A   Mostly Cloudy
5:53 PM 60.1 °F - 37.0 °F 42% 29.89 in 10.0 mi WNW 15.0 mph - N/A   Mostly Cloudy
6:53 PM 57.2 °F - 37.4 °F 48% 29.95 in 10.0 mi NW 15.0 mph 25.3 mph N/A   Overcast
7:53 PM 51.1 °F - 28.0 °F 41% 30.04 in 10.0 mi NNW 19.6 mph 34.5 mph N/A   Mostly Cloudy
8:53 PM 46.4 °F 38.1 °F 26.6 °F 46% 30.11 in 10.0 mi NNW 24.2 mph 33.4 mph N/A   Partly Cloudy
9:53 PM 44.1 °F 36.5 °F 26.1 °F 49% 30.17 in 10.0 mi NNW 17.3 mph - N/A   Clear
10:53 PM 42.1 °F 35.7 °F 28.0 °F 58% 30.22 in 10.0 mi NNW 11.5 mph - N/A   Clear
11:53 PM 41.0 °F 33.1 °F 27.0 °F 57% 30.26 in 10.0 mi NNW 15.0 mph - N/A   Clear